Las Vegas, NV

11:50 AM PDT on August 26, 2016 (GMT -0700)
Nellis AFB

Weather History for KLSV - April, 2014

Change the Weather History Date:

Saturday, April 26, 2014

  Actual Average Record
Temperature  
Mean Temperature 61 °F -  
Max Temperature 70 °F 79 °F 93 °F (2001)
Min Temperature 53 °F 55 °F 51 °F (2015)
Degree Days  
Heating Degree Days 4    
Growing Degree Days 11 (Base 50)    
Moisture  
Dew Point 34 °F    
Average Humidity 37    
Maximum Humidity 52    
Minimum Humidity 16    
Precipitation  
Precipitation 0.00 in - - ()
Sea Level Pressure  
Sea Level Pressure 29.61 in    
Wind  
Wind Speed 16 mph (SSW)    
Max Wind Speed 23 mph    
Max Gust Speed 36 mph    
Visibility 10 miles    
Events      
Averages and records for this station are not official NWS values.
T = Trace of Precipitation, MM = Missing Value Source: NWS Daily Summary

Daily Weather History Graph

Daily Weather History Graph

Search for Another Location

Airport or City:

Trip Planner

Search our weather history database for the weather conditions in past years. The results will help you decide how hot, cold, wet, or windy it might be!

Date:

Astronomy

Apr. 26, 2014 Rise Set
Actual Time 5:52 AM PDT 7:23 PM PDT
Civil Twilight 5:25 AM PDT 7:50 PM PDT
Nautical Twilight 4:52 AM PDT 8:23 PM PDT
Astronomical Twilight 4:18 AM PDT 8:58 PM PDT
Moon 4:14 AM PDT 5:00 PM PDT
Length of Visible Light 14h 25m
Length of Day
13h 30m
Waning Crescent, 7% of the Moon is Illuminated
Apr 26
Waning Crescent
Apr 28
New
May 6
First Quarter
May 14
Full
May 21
Last Quarter

Hourly Weather History & Observations

Time (PDT) Temp. Dew Point Humidity Pressure Visibility Wind Dir Wind Speed Gust Speed Precip Events Conditions
12:58 AM 60.4 °F 39.2 °F 45% 29.51 in 10.0 mi SW 15.0 mph - N/A   Overcast
1:58 AM 60.6 °F 37.8 °F 43% 29.47 in 10.0 mi SSW 13.8 mph - N/A   Partly Cloudy
2:58 AM 59.9 °F 34.2 °F 38% 29.45 in 10.0 mi South 18.4 mph - N/A   Scattered Clouds
3:58 AM 58.1 °F 37.0 °F 45% 29.44 in 10.0 mi South 23.0 mph 29.9 mph N/A   Partly Cloudy
4:58 AM 55.6 °F 38.3 °F 52% 29.44 in 10.0 mi South 21.9 mph 28.8 mph N/A   Clear
5:58 AM 55.0 °F 34.2 °F 45% 29.44 in 10.0 mi SSE 17.3 mph - N/A   Clear
6:58 AM 53.8 °F 32.5 °F 45% 29.47 in 10.0 mi SSW 23.0 mph 35.7 mph N/A   Clear
7:58 AM 53.8 °F 32.2 °F 44% 29.49 in 10.0 mi South 19.6 mph - N/A   Clear
8:58 AM 54.9 °F 31.8 °F 42% 29.51 in 10.0 mi SSE 20.7 mph - N/A   Clear
9:58 AM 58.8 °F 32.2 °F 37% 29.55 in 10.0 mi South 11.5 mph - N/A   Scattered Clouds
10:30 AM 60.8 °F 32.0 °F 34% 29.61 in 10.0 mi South 13.8 mph 18.4 mph N/A   Scattered Clouds
10:31 AM 60.8 °F 32.0 °F 34% 29.61 in 10.0 mi WSW 11.5 mph 18.4 mph N/A   Scattered Clouds
10:58 AM 61.3 °F 35.6 °F 38% 29.59 in 10.0 mi WNW 15.0 mph 20.7 mph N/A   Mostly Cloudy
11:29 AM 60.8 °F 35.6 °F 39% 29.64 in 10.0 mi WSW 18.4 mph 24.2 mph N/A   Mostly Cloudy
11:31 AM 60.8 °F 35.6 °F 39% 29.63 in 10.0 mi SSW 19.6 mph 24.2 mph N/A   Mostly Cloudy
11:58 AM 59.0 °F 36.0 °F 42% 29.62 in 10.0 mi South 20.7 mph - N/A   Mostly Cloudy
12:43 PM 59.0 °F 35.6 °F 42% 29.67 in 10.0 mi SSW 12.7 mph 26.5 mph N/A   Mostly Cloudy
12:52 PM 59.0 °F 37.4 °F 45% 29.67 in 10.0 mi SSW 13.8 mph 24.2 mph N/A   Overcast
12:58 PM 58.5 °F 36.7 °F 44% 29.64 in 10.0 mi South 16.1 mph 24.2 mph N/A   Overcast
1:00 PM 59.0 °F 37.4 °F 45% 29.67 in 10.0 mi South 18.4 mph 24.2 mph N/A   Overcast
1:05 PM 59.0 °F 37.4 °F 45% 29.67 in 10.0 mi South 12.7 mph 24.2 mph N/A   Overcast
1:15 PM 59.0 °F 37.4 °F 45% 29.67 in 10.0 mi South 13.8 mph - N/A   Overcast
1:58 PM 62.1 °F 37.2 °F 40% 29.65 in 10.0 mi SW 12.7 mph - N/A   Mostly Cloudy
1:59 PM 62.6 °F 37.4 °F 39% 29.68 in 10.0 mi SSW 15.0 mph 23.0 mph N/A   Mostly Cloudy
2:22 PM 66.2 °F 33.8 °F 30% 29.67 in 10.0 mi NNW 17.3 mph 26.5 mph N/A   Mostly Cloudy
2:34 PM 66.2 °F 33.8 °F 30% 29.68 in 10.0 mi West 17.3 mph 23.0 mph N/A   Mostly Cloudy
2:47 PM 66.2 °F 33.8 °F 30% 29.68 in 10.0 mi SW 11.5 mph - N/A   Mostly Cloudy
2:58 PM 63.7 °F 37.0 °F 37% 29.65 in 10.0 mi South 9.2 mph - N/A   Overcast
3:58 PM 65.7 °F 35.4 °F 33% 29.64 in 10.0 mi SSW 5.8 mph - N/A   Overcast
4:58 PM 68.0 °F 33.1 °F 27% 29.64 in 10.0 mi South 11.5 mph 18.4 mph N/A   Mostly Cloudy
5:58 PM 69.8 °F 25.2 °F 19% 29.64 in 10.0 mi WNW 13.8 mph 23.0 mph N/A   Scattered Clouds
6:58 PM 69.6 °F 21.9 °F 16% 29.65 in 10.0 mi WNW 15.0 mph - N/A   Partly Cloudy
7:58 PM 68.4 °F 20.8 °F 16% 29.67 in 10.0 mi West 12.7 mph - N/A   Clear
8:58 PM 66.9 °F 21.0 °F 17% 29.70 in 10.0 mi WNW 4.6 mph - N/A   Clear
9:58 PM 62.8 °F 33.4 °F 33% 29.74 in 10.0 mi ESE 8.1 mph - N/A   Clear
10:58 PM 61.3 °F 30.2 °F 31% 29.76 in 10.0 mi West 1.2 mph - N/A   Clear
11:58 PM 59.0 °F 28.8 °F 32% 29.77 in 10.0 mi South 6.9 mph - N/A   Clear